Wind_Speed
7 7 6 6 7 6 4 5 6 6 5 4 3 1 5 10 11 13 17 16 12 15 17 17 15 12 7 4 1 3 1 2 3 4 3 6 1 2 2 3 1 4 5 7 11
6 7 7 6 6 6 8 6 6 7 8 6 5 3 3 10 12 11 14 14 13 15 15 15 14 11 5 1 1 1 0 1 2 5 5 10 4 4 2 2 2 3 6 5 10
5 5 6 6 6 6 6 8 8 7 8 9 7 5 2 9 14 12 13 13 14 15 16 14 11 8 4 2 1 1 1 4 4 8 10 9 6 5 5 5 4 4 4 6 8
6 5 5 6 6 6 6 6 7 11 9 10 10 7 5 8 7 13 12 15 16 16 14 13 10 7 4 2 4 1 4 2 7 10 8 4 6 3 9 6 10 9 6 5 9
8 7 7 6 6 6 6 6 7 7 12 11 12 10 8 8 11 14 12 15 17 16 13 11 10 7 7 5 3 3 2 3 8 10 4 3 4 7 9 10 9 9 6 6 10
8 8 9 8 8 8 7 6 6 6 9 11 12 13 11 9 13 13 12 15 18 18 14 13 9 10 6 7 6 7 4 4 7 8 3 3 1 5 8 8 8 9 7 7 9
8 8 8 9 9 9 8 7 6 6 6 12 11 13 14 14 15 13 10 15 20 19 16 16 16 10 10 7 9 8 5 6 4 5 4 3 1 6 8 7 12 11 9 8 7
9 9 8 9 8 8 8 8 7 6 6 8 14 12 16 17 16 14 10 14 22 24 19 17 15 13 12 12 9 8 8 10 6 8 8 4 4 5 6 7 9 12 12 10 8
13 12 10 9 8 7 6 7 7 6 6 8 10 14 15 19 19 19 14 13 18 23 21 18 15 13 12 11 12 11 16 7 12 9 10 10 6 7 6 9 11 10 12 11 11
16 15 13 11 10 9 7 5 5 7 7 7 9 11 13 20 23 23 19 17 17 20 22 20 16 16 15 15 19 12 9 10 11 9 10 14 14 10 10 8 12 12 11 11 10
19 18 17 15 12 10 9 8 7 7 8 10 7 15 8 16 22 25 24 20 18 18 17 19 19 22 19 17 17 13 14 17 15 12 14 17 18 12 16 14 14 13 13 12 11
21 20 20 18 16 14 12 10 9 9 7 7 11 13 14 13 19 26 27 26 25 19 16 16 22 18 17 15 15 16 18 19 15 14 14 16 20 15 14 11 10 18 18 15 17
23 22 21 20 18 17 16 14 12 10 11 11 11 14 17 18 18 24 28 29 24 21 21 20 15 16 16 15 15 16 15 14 12 10 11 13 17 14 12 11 15 21 21 21 18
24 23 22 22 20 19 18 16 14 12 9 12 14 17 20 20 22 22 26 27 24 23 20 20 18 15 13 14 14 16 13 13 12 9 13 5 18 7 7 12 15 15 24 24 22
25 24 23 22 21 20 18 17 14 11 3 7 15 16 19 24 18 24 25 27 22 19 19 20 17 19 19 18 15 17 14 12 12 13 12 13 11 15 10 11 10 18 23 24 27
26 24 23 22 21 21 19 16 13 9 7 8 11 13 16 24 25 17 26 26 22 17 18 19 20 16 17 17 19 15 14 10 11 13 17 19 15 22 20 17 15 23 24 24 23
26 24 23 22 21 20 19 16 10 9 9 10 12 14 14 17 21 19 24 27 21 19 20 18 21 18 21 13 12 13 14 16 11 11 12 9 12 21 17 22 22 21 22 23 24
26 25 24 22 21 20 18 18 13 9 18 11 18 17 13 15 17 21 16 22 27 21 14 20 18 20 19 20 14 13 16 15 11 11 11 4 9 9 11 13 15 18 22 19 17
26 25 24 22 21 21 20 19 13 15 20 16 14 14 14 17 11 17 23 24 19 27 22 15 15 14 17 16 17 15 16 16 15 13 14 22 22 21 20 24 20 14 10 9 9
25 25 25 23 22 21 23 22 20 16 19 18 14 14 13 13 16 14 15 15 21 27 22 18 14 10 16 20 23 23 14 12 12 4 12 13 12 16 11 11 9 9 8 8 9
25 24 24 23 23 24 27 21 25 19 18 18 13 11 13 10 16 14 9 10 20 20 27 19 18 11 16 17 15 16 22 19 15 15 11 10 8 6 3 1 5 7 9 10 12
24 23 22 23 24 29 28 27 25 23 19 18 16 16 12 14 8 13 12 12 17 15 19 24 15 21 19 16 16 19 20 21 20 14 12 17 21 12 15 15 16 12 12 11 14
24 25 24 23 26 27 27 26 23 23 23 24 18 17 15 11 6 10 15 16 15 11 9 17 16 18 14 15 21 19 18 21 22 18 19 15 14 9 7 9 10 15 16 15 16
24 22 26 25 28 24 25 23 24 25 25 24 20 21 19 15 14 6 9 15 16 17 16 15 13 22 24 22 15 17 20 25 21 21 22 25 25 18 18 17 17 19 19 18 17
25 26 25 19 29 26 24 18 22 22 22 22 24 22 17 12 14 14 13 13 14 14 10 12 13 16 21 21 20 21 20 21 26 25 28 25 26 23 17 17 18 19 20 19 19
28 29 24 26 16 27 24 20 17 21 22 20 16 18 18 14 15 11 20 24 13 16 13 13 10 12 16 18 23 25 24 23 23 23 25 25 28 22 19 19 20 18 16 20 23
31 27 24 24 23 18 19 23 23 21 18 19 18 17 15 19 18 21 23 22 17 15 18 14 8 6 15 12 13 22 28 27 25 23 23 27 26 20 23 21 16 14 14 14 19
Wind_Direction
267 270 274 270 261 241 227 225 226 227 237 240 243 186 176 193 194 195 196 194 188 188 181 179 183 182 177 150 148 81 99 75 41 28 329 340 235 223 199 201 268 227 196 198 192
262 261 262 266 267 263 240 226 225 228 229 235 240 238 175 183 190 197 206 198 185 183 180 182 189 191 188 144 68 41 203 350 322 341 332 321 220 236 189 187 232 206 198 189 195
266 265 264 264 263 263 263 239 227 229 229 230 233 237 209 181 181 192 202 200 194 182 184 189 194 190 199 213 186 325 294 318 336 333 333 306 229 223 182 202 207 193 194 207 198
274 270 273 271 266 260 256 254 244 229 229 223 226 226 216 178 168 200 194 193 190 187 182 183 190 191 194 219 245 304 291 341 326 335 345 274 216 177 189 211 197 218 227 223 202
268 271 267 272 277 275 263 250 247 240 224 223 218 220 210 192 190 184 185 188 185 184 181 182 179 191 204 221 261 258 229 323 329 331 359 1 184 187 192 217 206 214 220 218 202
265 268 270 265 267 274 278 270 257 255 225 219 218 215 212 198 202 194 189 187 188 186 189 192 192 192 203 218 223 229 220 292 344 323 320 34 209 180 221 214 201 193 205 202 208
263 269 272 273 264 265 270 273 272 255 236 217 221 216 211 203 202 200 198 188 190 185 192 198 203 188 209 227 222 202 246 272 295 308 295 331 283 214 221 215 205 197 202 207 217
252 257 261 268 274 268 260 260 261 262 247 225 219 220 214 207 204 205 197 193 186 191 198 202 200 204 202 215 212 221 256 268 258 287 254 245 235 223 242 219 214 208 207 217 218
254 254 254 256 260 268 270 257 248 247 250 242 223 217 221 211 206 202 197 192 201 203 209 212 208 207 210 219 237 243 269 269 289 289 244 239 257 248 259 221 215 213 215 217 222
256 257 254 255 254 256 258 263 249 237 239 242 234 215 217 212 209 205 200 200 205 210 217 220 218 220 222 223 242 259 246 267 284 284 251 252 255 266 272 241 219 213 216 214 209
255 257 257 254 253 254 253 258 258 255 230 232 223 223 223 215 208 209 207 205 205 210 211 216 221 226 233 241 254 260 268 274 279 280 257 257 261 265 257 222 221 229 225 219 206
251 253 255 255 253 252 253 251 253 253 252 236 231 227 225 217 211 210 209 210 213 214 215 220 228 233 239 241 249 258 265 270 278 275 256 259 270 274 242 216 232 226 228 231 225
249 251 252 253 253 252 250 250 252 257 263 255 242 224 219 217 215 212 211 211 219 220 222 230 239 232 234 242 249 254 260 264 265 293 285 267 267 251 232 212 225 228 228 232 234
250 251 251 251 251 249 249 247 250 260 267 254 236 227 213 216 221 217 211 214 219 224 230 236 235 232 229 235 245 255 265 259 262 272 286 243 280 271 218 234 236 226 232 237 236
250 250 250 248 247 245 243 242 242 242 306 231 222 222 208 203 221 215 215 216 217 225 213 229 233 233 236 245 253 253 259 254 254 264 277 252 262 272 258 245 254 247 257 252 251
248 246 247 246 244 242 238 234 227 210 232 220 203 208 200 206 213 211 212 214 209 211 226 229 235 229 240 246 256 242 247 248 262 262 260 269 276 276 277 270 258 262 268 270 254
245 243 241 240 239 236 231 224 212 212 219 215 203 207 197 211 209 205 209 208 208 211 222 230 236 243 248 243 252 228 225 244 239 233 256 285 273 269 278 269 274 274 271 273 267
243 241 239 237 233 230 222 209 214 215 206 201 206 207 199 207 213 210 204 206 212 213 224 225 226 234 241 231 239 232 226 227 252 259 264 210 265 280 285 289 292 277 274 279 264
241 239 237 231 228 224 214 211 217 217 210 208 206 205 212 210 207 211 217 219 218 216 217 221 231 231 231 226 223 233 229 239 255 263 268 268 270 280 280 275 270 291 267 248 195
238 236 234 228 223 219 213 220 218 213 215 213 206 210 213 210 209 202 207 225 219 226 215 228 237 238 235 231 237 229 243 237 236 240 255 258 264 269 284 295 296 263 238 211 195
232 231 228 225 219 216 218 220 222 217 215 213 214 214 211 212 206 210 218 221 210 218 214 219 222 221 228 227 223 231 230 235 243 240 255 269 253 216 264 349 324 288 241 225 215
225 226 223 220 216 218 221 220 224 223 216 219 220 215 205 216 212 210 207 205 208 204 215 217 230 229 231 233 236 230 236 236 228 231 247 260 264 273 266 273 280 279 273 256 237
222 226 221 217 216 219 226 225 225 226 223 227 224 222 217 208 204 201 212 212 209 197 195 215 220 221 222 236 235 235 239 231 236 247 244 245 255 244 251 270 264 270 261 273 252
217 218 221 219 223 219 224 225 221 224 226 226 226 228 229 220 213 198 201 211 214 221 220 212 222 220 228 235 230 226 234 244 241 239 249 248 261 262 277 283 281 274 258 255 247
212 218 220 221 222 222 221 219 215 220 223 227 233 229 224 224 229 230 227 211 219 222 218 228 247 247 244 243 241 246 246 240 241 247 249 259 262 271 268 272 281 272 261 245 242
218 218 216 221 220 218 218 215 210 217 221 226 217 226 226 223 220 216 235 238 234 245 253 255 252 259 264 251 246 248 245 238 245 251 259 259 264 268 262 282 280 266 259 256 246
216 218 214 221 219 211 216 219 214 217 216 223 224 225 227 230 230 237 237 237 234 235 235 238 250 259 264 253 251 248 240 239 244 250 254 259 262 272 272 282 260 262 260 261 245
Height
3169 3168 3169 3169 3168 3169 3169 3169 3169 3169 3169 3170 3170 3170 3171 3173 3174 3176 3177 3179 3181 3183 3185 3187 3189 3191 3192 3193 3193 3193 3195 3193 3194 3194 3193 3191 3191 3191 3191 3191 3191 3191 3191 3192 3192
3167 3167 3167 3167 3167 3167 3168 3169 3168 3168 3168 3169 3169 3170 3170 3171 3174 3176 3178 3179 3180 3183 3186 3187 3189 3191 3193 3193 3194 3193 3194 3194 3193 3192 3192 3189 3190 3189 3190 3190 3190 3190 3191 3191 3192
3165 3164 3165 3165 3165 3165 3166 3166 3167 3167 3167 3168 3169 3169 3170 3171 3173 3175 3176 3179 3181 3183 3185 3187 3189 3191 3193 3193 3194 3194 3194 3193 3192 3191 3190 3188 3188 3188 3189 3190 3191 3190 3190 3190 3191
3163 3163 3163 3163 3163 3164 3164 3164 3165 3165 3166 3166 3167 3169 3170 3171 3177 3173 3175 3177 3180 3183 3186 3188 3190 3192 3193 3194 3193 3194 3192 3192 3191 3190 3188 3187 3187 3187 3189 3191 3189 3189 3189 3189 3189
3161 3161 3161 3161 3161 3162 3162 3162 3162 3163 3164 3165 3166 3167 3169 3171 3171 3172 3174 3176 3179 3182 3185 3188 3190 3191 3192 3192 3193 3193 3192 3191 3189 3188 3187 3186 3186 3188 3188 3187 3187 3187 3188 3188 3188
3158 3158 3159 3159 3159 3159 3160 3160 3160 3161 3161 3163 3164 3165 3168 3170 3170 3171 3173 3175 3178 3181 3184 3187 3189 3189 3191 3191 3192 3192 3191 3191 3189 3187 3187 3186 3186 3185 3187 3185 3185 3186 3186 3187 3187
3155 3155 3156 3156 3156 3157 3157 3158 3159 3159 3159 3161 3162 3163 3166 3168 3168 3170 3172 3174 3177 3180 3183 3185 3186 3189 3189 3190 3190 3190 3192 3190 3189 3187 3187 3186 3185 3184 3184 3184 3184 3184 3185 3186 3187
3153 3153 3153 3153 3153 3154 3155 3156 3157 3157 3158 3158 3160 3162 3163 3165 3167 3169 3171 3173 3175 3178 3180 3182 3185 3186 3187 3188 3189 3191 3191 3189 3187 3186 3186 3186 3183 3184 3182 3182 3183 3183 3184 3185 3185
3150 3150 3151 3151 3151 3152 3152 3153 3154 3155 3156 3157 3158 3160 3161 3163 3165 3167 3169 3172 3174 3177 3178 3181 3183 3185 3186 3188 3189 3187 3185 3185 3187 3185 3185 3184 3183 3183 3181 3181 3182 3182 3183 3183 3184
3146 3147 3147 3148 3149 3150 3150 3151 3151 3152 3154 3154 3155 3159 3158 3159 3161 3164 3167 3170 3172 3174 3177 3179 3182 3183 3184 3185 3182 3181 3183 3184 3185 3184 3182 3183 3181 3180 3179 3179 3180 3180 3181 3182 3183
3142 3143 3144 3145 3146 3147 3148 3149 3152 3152 3150 3152 3152 3153 3154 3156 3159 3162 3165 3168 3170 3173 3175 3177 3180 3178 3181 3182 3182 3182 3183 3182 3182 3182 3180 3179 3178 3178 3176 3175 3177 3178 3178 3180 3181
3137 3139 3140 3141 3142 3143 3145 3146 3148 3149 3148 3147 3148 3149 3151 3153 3156 3158 3162 3166 3167 3170 3173 3175 3174 3177 3178 3178 3180 3180 3180 3179 3178 3177 3177 3176 3174 3174 3172 3171 3174 3175 3175 3177 3177
3132 3134 3135 3136 3137 3139 3140 3143 3144 3145 3145 3144 3144 3145 3148 3151 3152 3154 3157 3161 3164 3167 3168 3170 3173 3174 3174 3176 3177 3177 3177 3176 3176 3174 3172 3172 3170 3167 3168 3169 3169 3170 3172 3172 3173
3126 3128 3130 3132 3135 3135 3136 3138 3140 3141 3142 3140 3139 3140 3142 3145 3148 3150 3153 3158 3160 3163 3166 3168 3169 3170 3171 3172 3174 3174 3174 3174 3173 3173 3168 3170 3163 3164 3163 3166 3166 3166 3168 3168 3169
3119 3122 3124 3127 3128 3130 3134 3135 3137 3139 3139 3135 3133 3134 3136 3142 3143 3145 3148 3152 3157 3159 3162 3164 3165 3166 3168 3169 3171 3171 3170 3171 3171 3170 3170 3166 3167 3161 3161 3164 3165 3164 3164 3164 3164
3112 3115 3118 3121 3123 3125 3127 3131 3134 3138 3131 3129 3129 3130 3133 3135 3139 3140 3144 3148 3152 3155 3157 3161 3160 3163 3165 3165 3165 3167 3168 3168 3168 3168 3166 3163 3163 3159 3158 3158 3159 3158 3158 3157 3158
3105 3108 3111 3114 3117 3120 3123 3127 3132 3126 3127 3126 3126 3128 3130 3133 3135 3138 3139 3142 3147 3151 3153 3155 3157 3158 3160 3162 3161 3162 3165 3164 3161 3160 3160 3160 3161 3156 3155 3153 3152 3152 3151 3150 3150
3099 3102 3104 3108 3111 3114 3119 3123 3121 3118 3121 3121 3122 3125 3128 3130 3132 3134 3137 3139 3141 3145 3148 3150 3152 3153 3155 3158 3160 3160 3161 3161 3158 3154 3153 3157 3155 3151 3150 3149 3147 3147 3147 3145 3143
3092 3096 3098 3102 3105 3109 3114 3114 3113 3114 3115 3118 3121 3123 3125 3126 3129 3131 3133 3136 3138 3140 3145 3146 3147 3147 3149 3152 3157 3157 3158 3159 3158 3158 3157 3154 3150 3149 3147 3145 3144 3144 3144 3143 3142
3086 3089 3092 3096 3099 3103 3106 3105 3108 3110 3113 3115 3118 3119 3121 3124 3126 3127 3130 3130 3133 3135 3139 3142 3144 3143 3144 3147 3150 3152 3156 3157 3157 3156 3151 3146 3146 3145 3145 3143 3142 3142 3142 3143 3144
3081 3083 3086 3090 3094 3097 3096 3100 3102 3106 3109 3113 3113 3115 3117 3119 3121 3124 3126 3126 3126 3128 3132 3137 3139 3141 3141 3142 3145 3147 3149 3151 3151 3150 3145 3142 3141 3141 3143 3142 3141 3141 3141 3141 3143
3074 3077 3080 3084 3089 3087 3090 3093 3098 3101 3105 3107 3109 3111 3114 3116 3118 3121 3123 3122 3123 3125 3127 3131 3133 3134 3136 3136 3138 3140 3142 3145 3146 3146 3145 3144 3140 3138 3140 3140 3140 3139 3139 3140 3140
3067 3070 3074 3078 3079 3082 3084 3089 3093 3096 3099 3103 3105 3107 3110 3113 3117 3116 3117 3118 3120 3122 3124 3125 3126 3130 3131 3133 3134 3134 3136 3138 3140 3141 3138 3140 3137 3135 3136 3137 3137 3137 3136 3135 3136
3062 3065 3067 3071 3072 3077 3080 3084 3087 3091 3094 3097 3099 3102 3106 3109 3111 3113 3115 3115 3117 3119 3120 3121 3122 3123 3123 3125 3128 3128 3131 3132 3134 3135 3135 3133 3133 3133 3132 3132 3132 3131 3131 3131 3131
3054 3056 3060 3063 3067 3072 3076 3079 3082 3086 3088 3092 3094 3097 3100 3105 3107 3109 3111 3112 3114 3115 3117 3118 3118 3120 3119 3121 3122 3123 3125 3127 3125 3128 3128 3129 3128 3128 3129 3128 3127 3126 3125 3126 3127
3048 3051 3056 3059 3062 3067 3069 3074 3077 3079 3084 3086 3089 3091 3094 3099 3102 3103 3105 3107 3110 3112 3113 3113 3114 3114 3114 3115 3116 3116 3118 3119 3120 3121 3122 3122 3121 3123 3123 3122 3121 3120 3121 3121 3122
3041 3047 3052 3054 3057 3062 3065 3068 3072 3075 3078 3080 3083 3087 3090 3091 3095 3096 3099 3102 3104 3107 3109 3111 3110 3111 3110 3110 3111 3109 3108 3112 3113 3114 3115 3115 3116 3118 3116 3116 3115 3115 3116 3116 3116